www.pogodaiklimat.ru
ПОГОДА в Большом Каньоне
Время
и дата
22:30 05.02
22:54 05.02
23:54 05.02
00:54 06.02
01:54 06.02
02:54 06.02
03:54 06.02
04:54 06.02
05:54 06.02
06:54 06.02
07:54 06.02
08:54 06.02
09:54 06.02
10:54 06.02
11:54 06.02
12:54 06.02
13:54 06.02
14:54 06.02
15:54 06.02
16:24 06.02
16:54 06.02
17:54 06.02
18:54 06.02
19:54 06.02
20:54 06.02
21:54 06.02
22:54 06.02
23:54 06.02
00:54 07.02
01:54 07.02
02:54 07.02
03:54 07.02
04:54 07.02
05:54 07.02
06:54 07.02
07:54 07.02
08:54 07.02
09:54 07.02
10:54 07.02
11:54 07.02
12:54 07.02
13:54 07.02
14:54 07.02
15:54 07.02
16:54 07.02
17:54 07.02
18:54 07.02
19:54 07.02
Ветер
(напр.,м/с)
Видим. Явления Облачность Т
(С)
Тd
(С)
f
(%)
Тe
(С)
Тes
(С)
Комфортность P
(гПа)
Po
(гПа)
Тmin
(С)
Tmax
(С)
R
(мм)
R24
(мм)
S
(см)
ЮЗ 3 16 км 10/10 930 м +1.7 -2.2 75 -2 -2 795.5
ЮЗ 4 16 км 8/8 960 м +1.1 -2.8 75 -4 -4 1013.2 795.5 +1.1 +7.2
ЮЗ 2 16 км ясно -1.7 -5.6 75 -5 -5 1013.9 795.5
штиль 0 16 км ясно -5.6 -7.2 88 -7 -7 1014.8 795.5
штиль 0 16 км ясно -7.2 -8.3 92 -8 -8 1015.1 795.5
СВ 2 16 км ясно -8.9 -10.6 87 -13 -13 1015.1 795.5
штиль 0 16 км ясно -11.7 -13.3 88 -12 -12 1016.1 795.5
В 2 16 км ясно -10.6 -12.8 84 -15 -15 1016.2 795.5 -12.2 +1.1
СВ 4 16 км ясно -11.7 -13.9 84 -19 -19 1017.1 795.5
СВ 4 16 км ясно -12.2 -15.0 80 -19 -19 1017.9 795.7
СВ 4 16 км ясно -12.8 -15.6 79 -20 -20 1018.6 796.3
штиль 0 16 км ясно -9.4 -11.7 83 -10 -9 1018.4 796.5
нст 2 16 км ясно +1.7 -8.3 47 -1 +2 1015.7 796.8
СВ 6 16 км ясно +1.7 -10.0 41 -4 -2 1016.7 797.3 -13.3 +2.2
нст 3 16 км ясно +2.8 -9.4 40 0 +6 1017.4 797.3
СВ 3 16 км 8/8 1800 м +2.2 -8.9 44 -1 0 1017.9 796.8
СВ 4 16 км 8/8 1500 м +3.3 -8.9 40 0 +1 1017.6 796.5
С 4 16 км 8/8 1800 m
[Ac]
+3.9 -8.9 39 0 +1 1018.0 796.5
штиль 0 8 км мгла 10/10 600 м -0.6 -4.4 75 -2 -2 1021.2 797.3
СВ 7
{9}
3 км слабый снег 10/10 1020 m
[Ns]
0.0 -5.0 69 -7 -7 797.8
СВ 3 16 км 10/10 1260 м +0.6 -5.0 66 -4 -4 1020.8 797.6 -1.1 +3.9
штиль 0 16 км 8/2 1800 m
[Ac]
0.0 -7.2 58 -1 0 1021.6 797.8
штиль 0 16 км 10/2 480 m
[Ac]
-0.6 -7.8 58 -1 -1 1022.6 798.4
С 4 14 км 8/8 1800 m
[Ac]
-0.6 -8.3 56 -6 -6 1023.3 798.6
С 3 16 км ясно -1.7 -10.0 53 -6 -6 1023.1 799.2
штиль 0 16 км ясно -6.1 -10.6 70 -7 -7 1021.8 799.4
штиль 0 16 км ясно -8.3 -11.1 80 -9 -9 1022.7 799.7 -8.9 +0.6
нст 2 16 км ясно -9.4 -12.8 76 -14 -14 1023.0 800.0
штиль 0 16 км ясно -11.1 -13.3 84 -11 -11 1023.7 800.0
штиль 0 16 км ясно -11.7 -13.9 84 -12 -12 1023.9 800.2
штиль 0 16 км ясно -13.9 -16.1 83 -14 -14 1024.5 800.2
штиль 0 16 км ясно -15.0 -17.2 83 -15 -15 1026.6 800.8
В 2 16 км ясно -15.0 -17.8 79 -20 -20 1026.7 801.0 -15.6 -7.8
СВ 2 16 км ясно -15.6 -18.3 80 -21 -21 1027.4 801.3
штиль 0 16 км ясно -16.1 -19.4 76 -16 -16 1027.9 801.6
штиль 0 16 км ясно -16.7 -19.4 80 -17 -17 1029.0 802.4
штиль 0 16 км ясно -12.8 -16.1 76 -13 -12 1029.0 802.9
СВ 4 16 км ясно -2.2 -11.1 50 -7 -6 1027.6 803.1
СВ 7 16 км ясно +0.6 -10.6 43 -5 -4 1027.8 803.1 -17.2 +1.1
СВ 9 16 км ясно +1.7 -10.6 40 -5 -4 1027.8 803.1
СВ 5
{9}
16 км ясно +2.8 -10.0 38 -2 +3 1027.4 802.9
СВ 5 16 км ясно +2.8 -10.6 37 -2 +3 1027.2 802.6
СВ 3 16 км ясно +3.9 -11.7 31 +1 +7 1027.4 802.6
СВ 4 16 км ясно +3.9 -10.0 35 0 +4 1027.9 802.6
СВ 3 16 км ясно +3.3 -10.0 37 0 +2 1027.9 802.6 +0.6 +3.9
СВ 2 16 км ясно 0.0 -10.0 47 -3 -2 1029.2 802.6
СВ 2 16 км ясно -5.0 -10.0 68 -9 -9 1030.9 802.6
СВ 2 16 км ясно -6.1 -11.1 68 -10 -10 1031.0 802.6
Местоположение метеостанции Grand Canyon National Park Airport: широта 35.9461 долгота -112.1547 высота над уровнем моря 2014 м.
В архиве по умолчанию представлена погода в Большом Каньоне за последние 1-2 суток. Обновление информации о фактической погоде в базе происходит ежечасно! Архивные данные за месяц целиком и за предыдущие месяцы Вы можете получить, выбрав интересующий диапазон дат из раскрывающегося списка и нажав кнопку "Ввод!".
Внимание! Архив погоды МЕТАР в базе сайта по станциям, не включенным в климатический монитор, хранится не более 60 дней. Нет смысла пытаться выбрать более раннюю дату.
*Определитесь, кто Вы:
Внимание! Время в таблицах - местное (без учета летнего времени). Для получения всемирного времени необходимо вычесть поправку, которая равна -7 ч.
Смотрите также архив погоды в соседних городах и на ближайших метеорологических станциях:
Партнеры нашего сайта:      
Пояснения к столбцам:
  • Ветер - указаны скорость ветра в м/с - средняя за 10 мин, порывы в срок и между сроками (в фигурных скобках) и направление, откуда дует ветер: С - северный,
  • СВ - северо-восточный, В - восточный, ЮВ - юго-восточный, Ю - южный, ЮЗ - юго-западный, З - западный, СЗ - северо-западный.
  • Видимость - горизонтальная дальность видимости в метрах или километрах. При видимости от 1 до 10 км при отсутствии осадков обычно наблюдается дымка, при ухудшении видимости до 1 км и менее - туман. В сухую погоду видимость может ухудшаться дымом, пылью или мглою.
  • Явления - указаны атмосферные явления, наблюдавшиеся в срок или в последний час перед сроком; фигурными скобками обозначены явления, наблюдавшиеся между сроками (за 1-3 часа до срока); квадратными скобками обозначены град или гололедные отложения с указанием их диаметра в мм.
  • Облачность - указаны через наклонную черту общая и нижняя облачность в баллах и высота нижней границы облаков в метрах; квадратными скобками обозначены формы облаков: Ci - перистые, Cs - перисто-слоистые, Cc - перисто-кучевые, Ac - высококучевые, As - высокослоистые, Sc - слоисто-кучевые, Ns - слоисто-дождевые, Cu - кучевые, Cb - кучево-дождевые. Подробнее классификацию облаков см. в Атласе облаков (PDF).
  • T - Температура воздуха - температура, измеренная на высоте 2 м над землей.
  • Td - Температура точки росы - температура, при понижении до которой содержащийся в воздухе водяной пар достигнет насыщения.
  • f - Относительная влажность воздуха - влажноcть воздуха, измеренная на высоте 2 м над землей.
  • Te - Эффективная температура - температура, которую ощущает одетый по сезону человек в тени. Характеристика душности погоды. При расчете учитывается влияние влажности воздуха и скорости ветра на теплоощущения человека.
  • Tes - Эффективная температура на солнце - температура, которую ощущает человек, с поправкой на солнечный нагрев. Характеристика знойности погоды. Зависит от высоты солнца над горизонтом, облачности и скорости ветра. Ночью, в пасмурную погоду, а также при ветре 12 м/с и более поправка равна нулю.
  • P - Атмосферное давление - приведенное к уровню моря атмосферное давление.
  • Po - Атмосферное давление - измеренное на уровне метеостанции атмосферное давление.
  • Tmin - Минимальная температура - минимум температуры воздуха на высоте 2 м над землей.
  • Tmax - Максимальная температура - максимум температуры воздуха на высоте 2 м над землей.
  • R - Количество осадков - Количество выпавших осадков за период времени, мм. При наведении курсора мыши на число - период времени, за который выпало указанное количество осадков.
  • R24 - Количество осадков - Количество выпавших осадков за 24 часа, мм.
  • S - Снежный покров - Высота снежного покрова, см. При наведении курсора мыши на число - состояние снежного покрова и степень покрытия местности в баллах.